Date,TemperatureHighF,TemperatureAvgF,TemperatureLowF,DewpointHighF,DewpointAvgF,DewpointLowF,HumidityHigh,HumidityAvg,HumidityLow,PressureMaxIn,PressureMinIn,WindSpeedMaxMPH,WindSpeedAvgMPH,GustSpeedMaxMPH,PrecipitationSumIn
2013-2-8,54.3,48.2,41.7,45.1,35.7,27.9,83,63,48,29.97,29.78,6,2,17,0.64
2013-2-9,52.7,36.7,27.9,28.8,23.1,15.0,85,61,23,30.28,29.95,4,1,13,0.07
2013-2-10,58.5,41.1,26.4,38.7,21.6,16.0,78,49,22,30.44,30.16,5,1,12,0.00
2013-2-11,63.1,56.5,44.4,61.4,54.2,38.7,100,92,79,30.16,29.88,6,3,16,0.02
2013-2-12,64.6,54.6,46.2,55.1,35.1,22.1,91,53,21,30.03,29.86,3,1,10,0.00
2013-2-13,49.3,46.2,43.5,47.2,44.3,36.1,100,94,62,29.91,29.57,4,1,8,0.24
2013-2-14,55.6,42.5,30.4,39.9,33.6,29.6,100,73,45,30.00,29.75,3,1,8,0.01
2013-2-15,67.6,46.6,28.8,40.9,33.0,27.5,100,66,25,30.01,29.88,4,1,9,0.00
2013-2-16,44.8,36.6,29.7,37.2,33.3,29.4,100,89,62,29.91,29.73,3,1,10,0.21
2013-2-17,40.8,30.0,22.1,29.4,12.2,-0.1,100,53,21,30.17,29.81,5,2,14,0.13
2013-2-18,55.9,35.8,16.2,26.3,16.4,7.2,86,50,21,30.36,30.17,4,1,11,0.01
2013-2-19,54.0,43.8,33.3,52.0,38.9,23.3,100,83,58,30.20,29.79,9,2,21,0.02
2013-2-20,51.4,39.6,30.2,40.9,21.6,13.7,99,53,23,30.07,29.88,4,1,9,0.00
2013-2-21,60.8,41.3,23.4,28.7,19.0,13.7,83,45,21,30.20,30.03,6,1,10,0.00
2013-2-22,41.0,35.8,31.3,35.6,30.9,20.8,97,84,45,30.28,30.05,6,1,8,0.37
2013-2-23,43.2,39.8,35.8,43.2,39.5,35.0,100,99,97,30.05,29.73,3,0,7,0.70
2013-2-24,67.5,50.8,39.6,49.4,38.4,28.0,100,69,26,29.98,29.71,6,1,8,0.18
2013-2-25,43.2,37.2,31.3,29.6,23.6,18.9,78,58,44,30.17,29.98,8,2,11,0.00
2013-2-26,58.3,45.5,35.1,58.0,42.0,24.3,100,88,63,30.06,29.50,13,3,17,0.67
2013-2-27,63.9,51.1,40.3,47.2,40.8,35.0,100,71,37,29.73,29.55,8,2,12,0.01
2013-2-28,46.8,39.2,31.1,37.8,34.5,24.6,94,85,45,29.77,29.62,4,0,8,0.00
2013-3-1,54.5,39.9,27.9,33.0,27.8,23.4,89,64,32,29.83,29.73,6,1,10,0.00
2013-3-2,53.4,39.1,27.0,31.1,24.8,18.0,87,59,32,29.83,29.77,7,1,10,0.00
2013-3-3,50.4,36.8,25.7,23.0,17.6,12.9,68,47,27,29.88,29.78,8,2,13,0.00
2013-3-4,54.9,37.3,24.4,19.9,13.2,8.7,61,39,20,30.00,29.87,8,1,11,0.00
2013-3-5,56.1,42.2,32.7,44.2,33.9,16.2,100,75,33,29.99,29.58,8,1,14,0.00
2013-3-6,42.1,42.1,42.1,41.0,41.0,41.0,96,96,96,29.59,29.59,4,4,5,0.00